GW5068 Weather Reports


time (UTC)temp
C
wind
direction
speed
KPH
gust
KPH
rain 1hr
cm
rain 24hr
cm
rain mn
cm
humidity
%
barometer
mb
20260505101558 3 20 0.0 3.2 0.00 0.43 0.05 95 1003.3
20260505100019 3 182 0.0 4.8 0.00 0.43 0.05 95 1002.9
20260505094550 3 227 1.6 3.2 0.00 0.43 0.05 95 1003.0
20260505093059 3 221 1.6 4.8 0.00 0.43 0.05 95 1003.0
20260505091526 3 222 1.6 6.4 0.00 0.43 0.05 96 1003.1
20260505090053 4 225 1.6 4.8 0.00 0.43 0.05 96 1003.3
20260505084607 3 231 0.0 1.6 0.00 0.43 0.05 95 1003.2
20260505083015 3 34 0.0 1.6 0.03 0.43 0.05 95 1003.5
20260505081545 4 33 0.0 1.6 0.03 0.43 0.05 95 1003.9
20260505080025 4 17 1.6 3.2 0.03 0.43 0.05 95 1004.1
20260505074542 4 25 1.6 4.8 0.03 0.43 0.05 95 1004.4
20260505073002 4 30 1.6 3.2 0.00 0.41 0.03 95 1004.6
20260505071535 4 25 1.6 4.8 0.00 0.41 0.03 95 1004.6
20260505070105 4 34 3.2 6.4 0.03 0.41 0.03 95 1004.5
20260505064538 4 30 0.0 4.8 0.03 0.41 0.03 95 1004.7
20260505063102 4 28 0.0 3.2 0.05 0.41 0.03 95 1004.6
20260505061558 4 20 0.0 3.2 0.05 0.41 0.03 94 1004.3
20260505054528 4 89 0.0 3.2 0.03 0.38 0.38 94 1004.5
20260505053046 4 46 0.0 1.6 0.00 0.36 0.36 94 1004.3
20260505051523 3 25 0.0 1.6 0.00 0.36 0.36 94 1004.3
20260505041502 3 25 0.0 1.6 0.05 0.36 0.36 93 1004.0
20260505040055 4 25 0.0 3.2 0.10 0.36 0.36 92 1003.6
20260505034504 5 12 1.6 3.2 0.23 0.36 0.36 92 1003.1
20260505033041 5 77 0.0 3.2 0.25 0.36 0.36 91 1003.3
20260505031507 5 17 0.0 3.2 0.23 0.30 0.30 91 1003.5
20260505024511 5 14 0.0 1.6 0.08 0.15 0.15 90 1003.1
20260505023029 5 14 0.0 1.6 0.08 0.10 0.10 89 1002.9
20260505021544 5 13 0.0 0.0 0.08 0.08 0.08 89 1002.7
20260505020056 5 13 0.0 0.0 0.08 0.08 0.08 88 1002.5
20260505014515 6 13 0.0 3.2 0.08 0.08 0.08 86 1002.4
20260505013028 6 13 0.0 6.4 0.08 0.08 0.08 82 1002.2
20260505011546 8 75 1.6 4.8 0.03 0.03 0.03 70 1002.4
20260505010108 9 56 0.0 4.8 0.00 0.00 0.00 60 1002.0
20260505004518 10 98 0.0 6.4 0.00 0.00 0.00 53 1001.6
20260505003034 10 110 1.6 8.0 0.00 0.00 0.00 53 1001.1
20260505001555 10 179 1.6 14.5 0.00 0.00 0.00 52 1000.9
20260505000008 11 4 3.2 20.9 0.00 0.00 0.00 47 1000.9
20260504233018 13 134 1.6 9.7 0.00 0.00 0.00 36 1000.1
20260504231539 13 68 3.2 11.3 0.00 0.00 0.00 37 1000.1
20260504230059 13 187 1.6 9.7 0.00 0.00 0.00 38 999.8
20260504224518 13 171 3.2 11.3 0.00 0.00 0.00 37 999.7
20260504223035 13 168 0.0 4.8 0.00 0.00 0.00 37 999.8
20260504214511 15 42 6.4 17.7 0.00 0.00 0.00 33 999.5
20260504213045 16 158 1.6 17.7 0.00 0.00 0.00 29 999.3
20260504211553 17 33 3.2 14.5 0.00 0.00 0.00 26 999.4
20260504210010 17 107 3.2 14.5 0.00 0.00 0.00 28 999.4
20260504204539 17 10 1.6 16.1 0.00 0.00 0.00 29 999.5
20260504203056 17 204 3.2 12.9 0.00 0.00 0.00 27 999.6
20260504201545 16 342 4.8 12.9 0.00 0.00 0.00 31 999.6
20260504200007 16 115 4.8 14.5 0.00 0.00 0.00 30 999.6
20260504194525 17 355 0.0 4.8 0.00 0.00 0.00 26 999.9
20260504193058 17 89 1.6 12.9 0.00 0.00 0.00 24 999.5
20260504191505 -17 0.0 0.0 0.00 0.00 0.00 999.6
20260504190029 -17 0.0 0.0 0.00 0.00 0.00 999.6
20260504184523 19 169 4.8 11.3 0.00 0.00 0.00 22 1000.0
20260504183054 18 93 3.2 9.7 0.00 0.00 0.00 22 1000.4